"startDT [UTC]","vpos","CH4 [ppm]","stdev(CH4) [ppm]","CO2 [ppm]","stdev(CO2) [ppm]","H2O_reported [%]","stdev(H2O_reported)","CavityPressure [torr]","CavityTemp [C]","OutletValve","CH4_dry [ppm]","CO2_dry [ppm]","DasTemp [C]","EtalonTemp [C]","WarmBoxTemp [C]","MPVPosition","T_ECpre [C]","T_EC1 [C]","T_EC2 [C]","p_inlet [hPa]","p_in [hPa]","p_out [hPa]","T_inlet [C]","RH_inlet [%]","dwpt_inlet [C]","T_vent [C]","RH_vent [%]","dwpt_vent [C]","flow_vent [l min-1]","flow_inlet [l min-1]","dwpt_sample [C]","T_room [C]"
2013-11-08 00:00:00,0.0,1.91570,0.00023,397.144,0.019,0.1032,0.0009,139.999,45.000,31479.11203,1.91765,397.640,28.301,45.060,45.000,0.00,0.11,-272.57,-272.64,-12,562,5,15.0,4.7,-25.1,15.1,4.9,-24.5,5.73,2.64,-16.1,21.7
2013-11-08 00:01:00,0.0,1.91593,0.00036,397.136,0.024,0.1024,0.0008,140.003,45.000,31478.99252,1.91793,397.629,28.308,45.060,45.000,0.00,0.11,-272.58,-272.64,-12,562,5,15.0,4.7,-25.0,15.2,4.9,-24.5,5.73,2.61,-16.1,21.7
2013-11-08 00:02:00,0.0,1.91569,0.00041,397.100,0.000,0.1033,0.0007,140.006,45.000,31478.89365,1.91757,397.592,28.313,45.060,45.000,0.00,0.11,-272.58,-272.64,-12,562,5,15.1,4.7,-25.0,15.2,4.8,-24.6,5.73,2.62,-16.1,21.7
2013-11-08 00:03:00,0.0,1.91606,0.00013,397.107,0.022,0.1044,0.0018,140.004,45.000,31477.92505,1.91796,397.607,28.313,45.060,45.000,0.00,0.11,-272.58,-272.64,-12,562,5,15.0,4.7,-25.1,15.2,4.9,-24.5,5.73,2.68,-16.1,21.7
2013-11-08 00:04:00,0.0,1.91610,0.00057,397.084,0.000,0.1013,0.0017,139.997,45.000,31477.85713,1.91813,397.573,28.313,45.060,45.000,0.00,0.11,-272.58,-272.63,-12,562,5,15.0,4.7,-25.1,15.2,4.9,-24.5,5.73,2.68,-16.1,21.7
2013-11-08 00:05:00,0.0,1.91614,0.00039,397.084,0.000,0.1032,0.0011,140.008,45.000,31479.27362,1.91797,397.575,28.313,45.060,45.000,0.00,0.11,-272.58,-272.64,-12,562,5,15.0,4.7,-25.1,15.1,4.9,-24.6,5.73,2.63,-16.1,21.7
2013-11-08 00:06:00,0.0,1.91646,0.00027,397.066,0.029,0.1023,0.0013,140.001,45.000,31478.71740,1.91838,397.562,28.313,45.060,45.000,0.00,0.11,-272.58,-272.64,-12,561,5,15.0,4.7,-25.1,15.1,4.9,-24.5,5.73,2.60,-16.1,21.7
2013-11-08 00:07:00,0.0,1.91628,0.00040,397.107,0.005,0.1010,0.0010,140.006,45.000,31480.46878,1.91808,397.584,28.313,45.060,45.000,0.00,0.11,-272.58,-272.64,-12,561,5,15.0,4.7,-25.1,15.1,4.9,-24.6,5.73,2.64,-16.1,21.7
2013-11-08 00:08:00,0.0,1.91615,0.00030,397.102,0.012,0.1001,0.0021,140.006,45.000,31480.71373,1.91817,397.585,28.310,45.060,45.000,0.00,0.11,-272.58,-272.64,-12,562,5,15.0,4.6,-25.2,15.1,4.8,-24.6,5.73,2.68,-16.0,21.7
2013-11-08 00:09:00,0.0,1.91666,0.00033,397.084,0.000,0.1025,0.0020,139.998,45.000,31476.44356,1.91851,397.572,28.313,45.060,45.000,0.00,0.11,-272.58,-272.64,-12,561,5,15.0,4.6,-25.2,15.1,4.8,-24.6,5.73,2.68,-16.1,21.6
2013-11-08 00:10:00,0.0,1.91637,0.00065,397.099,0.018,0.1023,0.0019,140.001,45.000,31476.43282,1.91831,397.587,28.313,45.060,45.000,0.00,0.11,-272.58,-272.64,-12,561,5,15.0,4.7,-25.1,15.1,4.8,-24.6,5.73,2.63,-16.1,21.6
2013-11-08 00:11:00,0.0,1.91628,0.00035,397.140,0.032,0.1034,0.0014,140.003,45.000,31477.26316,1.91835,397.628,28.310,45.060,45.000,0.00,0.11,-272.58,-272.63,-12,561,5,14.9,4.7,-25.1,15.1,4.9,-24.6,5.73,2.60,-16.1,21.6
2013-11-08 00:12:00,0.0,1.91639,0.00031,397.117,0.000,0.1031,0.0012,140.000,45.000,31477.46723,1.91824,397.613,28.314,45.060,45.000,0.00,0.11,-272.58,-272.64,-12,561,5,15.0,4.7,-25.1,15.1,4.9,-24.6,5.73,2.64,-16.0,21.6
2013-11-08 00:13:00,0.0,1.91622,0.00036,397.116,0.000,0.1032,0.0018,140.002,45.000,31475.78071,1.91824,397.610,28.313,45.060,45.000,0.00,0.11,-272.58,-272.64,-12,561,5,15.0,4.7,-25.1,15.1,4.9,-24.6,5.73,2.68,-16.1,21.7
2013-11-08 00:14:00,0.0,1.91619,0.00046,397.116,0.000,0.1022,0.0005,139.999,45.000,31474.69284,1.91795,397.606,28.313,45.060,45.000,0.00,0.11,-272.57,-272.64,-12,561,5,15.0,4.7,-25.0,15.1,4.9,-24.6,5.73,2.67,-16.1,21.7
2013-11-08 00:15:00,0.0,1.91653,0.00030,397.202,0.076,0.1028,0.0021,139.993,45.000,31472.43297,1.91858,397.678,28.313,45.060,45.000,0.00,0.11,-272.58,-272.64,-12,562,5,15.0,4.7,-25.1,15.1,4.8,-24.6,5.73,2.63,-16.1,21.7
2013-11-08 00:16:00,0.0,1.91586,0.00030,397.243,0.020,0.1031,0.0025,140.010,45.000,31481.02976,1.91787,397.739,28.313,45.060,45.000,0.00,0.11,-272.58,-272.64,-12,562,5,15.0,4.7,-25.1,15.2,4.9,-24.6,5.73,2.61,-16.1,21.7
2013-11-08 00:17:00,0.0,1.91623,0.00057,397.171,0.000,0.1028,0.0011,140.009,45.000,31480.65366,1.91797,397.670,28.316,45.060,45.000,0.00,0.11,-272.58,-272.63,-12,561,5,15.0,4.7,-25.1,15.2,4.9,-24.6,5.73,2.63,-16.1,21.7
2013-11-08 00:18:00,0.0,1.91623,0.00031,397.181,0.016,0.1020,0.0012,140.001,45.000,31479.30293,1.91826,397.665,28.313,45.060,45.000,0.00,0.11,-272.58,-272.64,-12,561,5,15.0,4.7,-25.1,15.2,4.9,-24.5,5.73,2.69,-16.1,21.7
2013-11-08 00:19:00,0.0,1.91620,0.00040,397.207,0.000,0.1035,0.0018,140.000,45.000,31479.05294,1.91811,397.702,28.313,45.060,45.000,0.00,0.11,-272.58,-272.64,-12,562,5,15.0,4.7,-25.0,15.1,4.9,-24.5,5.73,2.68,-16.1,21.7
2013-11-08 00:20:00,0.0,1.91604,0.00019,397.191,0.014,0.1023,0.0015,140.000,45.000,31480.09718,1.91804,397.684,28.313,45.060,45.000,0.00,0.11,-272.57,-272.63,-12,562,5,15.0,4.7,-25.0,15.1,4.9,-24.5,5.73,2.63,-16.1,21.7
2013-11-08 00:21:00,0.0,1.91635,0.00033,397.215,0.027,0.1034,0.0021,140.001,45.000,31479.50976,1.91819,397.703,28.313,45.060,45.000,0.00,0.11,-272.58,-272.63,-12,561,5,15.0,4.7,-25.0,15.1,4.9,-24.4,5.73,2.61,-16.1,21.7
2013-11-08 00:22:00,0.0,1.91624,0.00043,397.230,0.003,0.1047,0.0016,140.005,45.000,31479.63026,1.91832,397.730,28.313,45.060,45.000,0.00,0.11,-272.57,-272.64,-12,561,5,15.0,4.8,-24.9,15.1,5.0,-24.4,5.73,2.64,-16.1,21.7
2013-11-08 00:23:00,0.0,1.91567,0.00021,397.228,0.000,0.1056,0.0017,139.997,45.000,31477.71460,1.91774,397.733,28.313,45.060,45.000,0.00,0.11,-272.58,-272.64,-12,562,5,15.0,4.8,-24.8,15.1,5.0,-24.3,5.73,2.68,-16.1,21.7
2013-11-08 00:24:00,0.0,1.91605,0.00061,397.228,0.000,0.1057,0.0017,140.010,45.000,31480.91346,1.91779,397.735,28.313,45.060,45.000,0.00,0.11,-272.57,-272.64,-12,561,5,15.0,4.8,-24.8,15.1,5.0,-24.3,5.73,2.67,-16.1,21.7
2013-11-08 00:25:00,0.0,1.91653,0.00024,397.250,0.010,0.1075,0.0016,140.002,45.000,31477.98985,1.91863,397.763,28.313,45.060,45.000,0.00,0.11,-272.58,-272.64,-12,561,5,15.0,4.9,-24.7,15.1,5.0,-24.2,5.73,2.63,-16.1,21.7
2013-11-08 00:26:00,0.0,1.91611,0.00041,397.219,0.019,0.1074,0.0034,140.001,45.000,31477.25842,1.91805,397.734,28.313,45.060,45.000,0.00,0.11,-272.58,-272.64,-12,561,5,15.0,4.8,-24.7,15.1,5.0,-24.2,5.73,2.60,-16.1,21.7
2013-11-08 00:27:00,0.0,1.91654,0.00033,397.209,0.000,0.1062,0.0015,140.004,45.000,31476.31909,1.91855,397.720,28.313,45.060,45.000,0.00,0.11,-272.58,-272.64,-12,562,5,15.1,4.8,-24.7,15.1,5.0,-24.3,5.73,2.64,-16.0,21.7
2013-11-08 00:28:00,0.0,1.91673,0.00017,397.209,0.000,0.1069,0.0018,140.002,45.000,31477.38847,1.91874,397.722,28.313,45.060,45.000,0.00,0.11,-272.58,-272.64,-12,562,5,15.1,4.8,-24.7,15.2,5.0,-24.3,5.73,2.68,-16.1,21.8
2013-11-08 00:29:00,0.0,1.91619,0.00048,397.216,0.010,0.1043,0.0016,139.998,45.000,31477.17587,1.91832,397.714,28.313,45.060,45.000,0.00,0.11,-272.58,-272.64,-12,562,5,15.1,4.8,-24.8,15.2,4.9,-24.3,5.73,2.68,-16.0,21.8
2013-11-08 00:30:00,0.0,1.91648,0.00033,397.220,0.012,0.1045,0.0016,140.003,45.000,31478.34896,1.91833,397.723,28.313,45.060,45.000,0.00,0.11,-272.58,-272.64,-12,562,5,15.1,4.8,-24.8,15.2,4.9,-24.4,5.73,2.63,-16.0,21.8
2013-11-08 00:31:00,0.0,1.91627,0.00014,397.208,0.000,0.1043,0.0011,140.007,45.000,31479.05732,1.91832,397.706,28.313,45.060,45.000,0.00,0.11,-272.58,-272.64,-12,562,5,15.1,4.7,-24.8,15.2,4.9,-24.4,5.73,2.60,-16.1,21.7
2013-11-08 00:32:00,0.0,1.91672,0.00027,397.225,0.027,0.1035,0.0016,140.001,45.000,31478.49661,1.91858,397.715,28.313,45.060,45.000,0.00,0.11,-272.58,-272.63,-12,562,5,15.1,4.7,-24.9,15.2,4.9,-24.4,5.73,2.64,-16.0,21.8
2013-11-08 00:33:00,0.0,1.91637,0.00027,397.261,0.000,0.1055,0.0013,139.996,45.000,31476.67518,1.91839,397.765,28.310,45.060,45.000,0.00,0.11,-272.58,-272.64,-12,562,5,15.1,4.7,-24.9,15.2,4.9,-24.4,5.73,2.69,-16.1,21.7
2013-11-08 00:34:00,0.0,1.91658,0.00043,397.251,0.009,0.1040,0.0019,139.993,45.000,31477.65754,1.91861,397.753,28.281,45.060,45.000,0.00,0.11,-272.58,-272.63,-12,562,5,15.1,4.8,-24.8,15.2,4.9,-24.4,5.73,2.68,-16.0,21.7
2013-11-08 00:35:00,0.0,1.91617,0.00048,397.242,0.000,0.1050,0.0008,139.998,45.000,31477.50864,1.91828,397.744,28.301,45.060,45.000,0.00,0.11,-272.57,-272.63,-12,562,5,15.0,4.8,-24.8,15.2,5.0,-24.3,5.73,2.62,-16.0,21.7
2013-11-08 00:36:00,0.0,1.91624,0.00018,397.236,0.003,0.1048,0.0015,139.997,45.000,31478.19266,1.91814,397.740,28.274,45.060,45.000,0.00,0.11,-272.58,-272.64,-12,562,5,15.0,4.8,-24.9,15.2,4.9,-24.4,5.73,2.61,-16.0,21.7
2013-11-08 00:37:00,0.0,1.91643,0.00029,397.271,0.011,0.1047,0.0022,140.002,45.000,31478.56647,1.91840,397.767,28.250,45.060,45.000,0.00,0.11,-272.58,-272.64,-12,561,5,15.0,4.8,-24.9,15.2,4.9,-24.4,5.73,2.64,-16.0,21.7
2013-11-08 00:38:00,0.0,1.91639,0.00018,397.284,0.000,0.1023,0.0014,140.003,45.000,31476.83268,1.91826,397.775,28.256,45.060,45.000,0.00,0.11,-272.58,-272.64,-12,562,5,15.0,4.8,-24.9,15.2,4.9,-24.3,5.73,2.68,-16.0,21.6
2013-11-08 00:39:00,0.0,1.91663,0.00029,397.284,0.000,0.1061,0.0014,140.005,45.000,31477.77600,1.91856,397.789,28.250,45.060,45.000,0.00,0.11,-272.58,-272.64,-12,562,5,15.0,4.8,-24.9,15.2,5.0,-24.3,5.73,2.68,-16.0,21.6
2013-11-08 00:40:00,0.0,1.91633,0.00030,397.292,0.006,0.1045,0.0011,139.997,45.000,31475.39221,1.91844,397.791,28.250,45.060,45.000,0.00,0.11,-272.58,-272.64,-12,561,5,15.0,4.8,-24.9,15.2,4.9,-24.4,5.73,2.63,-16.0,21.7
2013-11-08 00:41:00,0.0,1.91621,0.00034,397.297,0.000,0.1050,0.0009,139.999,45.000,31476.60010,1.91807,397.800,28.250,45.060,45.000,0.00,0.11,-272.58,-272.63,-12,561,5,15.0,4.8,-24.9,15.2,4.9,-24.4,5.73,2.60,-16.0,21.7
2013-11-08 00:42:00,0.0,1.91664,0.00059,397.297,0.000,0.1057,0.0043,139.998,45.000,31477.61019,1.91864,397.804,28.250,45.060,45.000,0.00,0.11,-272.58,-272.64,-12,562,5,15.0,4.8,-24.9,15.2,4.9,-24.4,5.73,2.65,-16.0,21.7
2013-11-08 00:43:00,0.0,1.91629,0.00027,397.312,0.013,0.1037,0.0020,139.998,45.000,31476.77990,1.91824,397.805,28.270,45.060,45.000,0.00,0.11,-272.58,-272.64,-12,562,5,15.0,4.7,-24.9,15.2,4.9,-24.4,5.73,2.69,-16.0,21.7
2013-11-08 00:44:00,0.0,1.91714,0.00027,397.349,0.019,0.1033,0.0011,140.006,45.000,31477.52041,1.91899,397.840,28.295,45.060,45.000,0.00,0.11,-272.58,-272.64,-12,562,5,15.0,4.7,-25.0,15.2,4.9,-24.5,5.73,2.66,-15.9,21.7
2013-11-08 00:45:00,0.0,1.91708,0.00040,397.363,0.000,0.1011,0.0004,139.998,45.000,31477.42785,1.91893,397.848,28.313,45.060,45.000,0.00,0.11,-272.58,-272.63,-12,562,5,15.0,4.6,-25.1,15.2,4.8,-24.6,5.73,2.61,-15.9,21.7
2013-11-08 00:46:00,0.0,1.91739,0.00020,397.386,0.025,0.1010,0.0017,140.004,45.000,31478.54164,1.91928,397.866,28.307,45.060,45.000,0.00,0.11,-272.58,-272.64,-12,562,5,15.0,4.6,-25.3,15.2,4.8,-24.7,5.73,2.61,-15.9,21.7
2013-11-08 00:47:00,0.0,1.91795,0.00013,397.412,0.001,0.0987,0.0009,140.000,45.000,31476.37576,1.91972,397.886,28.306,45.060,45.000,0.00,0.11,-272.58,-272.63,-12,562,5,15.0,4.5,-25.5,15.1,4.7,-24.9,5.73,2.66,-15.9,21.6
2013-11-08 00:48:00,0.0,1.91806,0.00045,397.458,0.050,0.0965,0.0013,140.008,45.000,31479.88439,1.92001,397.911,28.254,45.059,44.999,0.00,0.11,-272.58,-272.63,-12,561,5,14.9,4.5,-25.6,15.1,4.7,-25.1,5.73,2.69,-15.9,21.6
2013-11-08 00:49:00,0.0,1.91778,0.00054,397.513,0.000,0.0940,0.0006,140.001,45.000,31475.35929,1.91953,397.965,28.250,45.060,45.000,0.00,0.11,-272.58,-272.64,-12,561,5,14.9,4.4,-25.8,15.1,4.6,-25.2,5.73,2.65,-15.8,21.6
2013-11-08 00:50:00,0.0,1.91735,0.00020,397.498,0.029,0.0949,0.0022,139.998,45.000,31474.92925,1.91918,397.961,28.212,45.060,45.000,0.00,0.11,-272.58,-272.64,-12,562,5,14.9,4.4,-25.8,15.1,4.6,-25.2,5.73,2.60,-15.8,21.6
2013-11-08 00:51:00,0.0,1.91716,0.00031,397.440,0.000,0.0967,0.0024,140.003,45.000,31475.75787,1.91909,397.897,28.188,45.060,45.000,0.00,0.11,-272.58,-272.63,-12,561,5,14.9,4.4,-25.8,15.1,4.6,-25.2,5.73,2.62,-15.8,21.6
2013-11-08 00:52:00,0.0,1.91751,0.00038,397.440,0.000,0.0970,0.0017,139.996,45.000,31472.07031,1.91914,397.905,28.188,45.060,45.001,0.00,0.11,-272.58,-272.64,-12,561,5,14.9,4.5,-25.7,15.1,4.6,-25.2,5.73,2.69,-15.8,21.6
2013-11-08 00:53:00,0.0,1.91745,0.00028,397.509,0.033,0.0949,0.0006,140.004,45.000,31472.75275,1.91934,397.958,28.151,45.060,45.000,0.00,0.11,-272.58,-272.64,-12,561,5,14.9,4.4,-25.7,15.0,4.6,-25.2,5.73,2.68,-15.8,21.6
2013-11-08 00:54:00,0.0,1.91740,0.00026,397.525,0.000,0.0968,0.0017,139.993,45.000,31467.80286,1.91907,397.988,28.125,45.060,45.000,0.00,0.11,-272.58,-272.64,-12,561,5,14.9,4.4,-25.7,15.0,4.6,-25.2,5.73,2.61,-15.8,21.6
2013-11-08 00:55:00,0.0,1.91704,0.00039,397.490,0.028,0.0971,0.0016,139.996,45.000,31467.36990,1.91912,397.958,28.117,45.060,45.000,0.00,0.11,-272.58,-272.64,-12,561,5,14.9,4.5,-25.6,15.1,4.7,-25.1,5.73,2.61,-15.7,21.6
2013-11-08 00:56:00,0.0,1.91756,0.00023,397.467,0.000,0.0984,0.0011,139.999,45.000,31467.92767,1.91916,397.939,28.091,45.060,45.000,0.00,0.11,-272.58,-272.64,-12,561,5,14.9,4.5,-25.5,15.1,4.7,-24.9,5.73,2.66,-15.7,21.6
2013-11-08 00:57:00,0.0,1.91772,0.00051,397.541,0.000,0.0979,0.0010,139.999,45.000,31467.89582,1.91960,398.001,28.063,45.060,45.000,0.00,0.11,-272.58,-272.64,-12,561,5,14.9,4.5,-25.5,15.1,4.7,-25.0,5.73,2.69,-15.8,21.6
2013-11-08 00:58:00,0.0,1.91760,0.00031,397.578,0.041,0.0972,0.0015,139.995,45.000,31468.50420,1.91944,398.036,28.063,45.060,45.000,0.00,0.11,-272.58,-272.63,-12,561,5,15.0,4.5,-25.5,15.1,4.7,-25.0,5.73,2.66,-15.8,21.6
2013-11-08 00:59:00,0.0,1.91796,0.00042,397.612,0.000,0.0957,0.0016,139.997,45.000,31468.27813,1.91958,398.074,28.058,45.060,45.000,0.00,0.11,-272.58,-272.64,-12,561,5,15.0,4.4,-25.7,15.1,4.6,-25.2,5.73,2.61,-15.7,21.6
2013-11-08 01:00:00,0.0,1.91786,0.00023,397.682,0.077,0.0963,0.0010,139.993,45.000,31469.42249,1.91978,398.128,28.063,45.060,45.000,0.00,0.11,-272.58,-272.64,-12,562,5,15.0,4.4,-25.7,15.2,4.6,-25.2,5.73,2.62,-15.8,21.7
2013-11-08 01:01:00,0.0,1.91802,0.00042,397.738,0.026,0.0944,0.0022,140.004,45.000,31470.74242,1.91973,398.196,28.063,45.060,45.000,0.00,0.11,-272.58,-272.63,-12,562,5,15.0,4.4,-25.8,15.2,4.6,-25.3,5.73,2.67,-15.7,21.6
2013-11-08 01:02:00,0.0,1.91797,0.00037,397.715,0.000,0.0943,0.0017,139.998,45.000,31468.86877,1.91989,398.168,28.070,45.060,45.000,0.00,0.11,-272.58,-272.63,-12,562,5,15.0,4.4,-25.8,15.2,4.5,-25.3,5.73,2.69,-15.7,21.7
2013-11-08 01:03:00,0.0,1.91842,0.00034,397.786,0.040,0.0946,0.0012,140.007,45.000,31471.63296,1.92008,398.236,28.064,45.060,45.000,0.00,0.11,-272.58,-272.64,-12,561,5,15.0,4.4,-25.8,15.2,4.5,-25.3,5.73,2.64,-15.7,21.7
2013-11-08 01:04:00,0.0,1.91806,0.00029,397.741,0.000,0.0943,0.0009,139.991,45.000,31467.50579,1.91996,398.193,28.069,45.060,45.000,0.00,0.11,-272.57,-272.64,-12,562,5,15.0,4.4,-25.8,15.2,4.5,-25.3,5.73,2.60,-15.7,21.7
2013-11-08 01:05:00,0.0,1.91820,0.00030,397.748,0.005,0.0958,0.0012,140.000,45.000,31469.12235,1.91990,398.205,28.065,45.060,45.000,0.00,0.11,-272.57,-272.64,-12,562,5,15.0,4.4,-25.9,15.2,4.5,-25.3,5.73,2.62,-15.7,21.7
2013-11-08 01:06:00,0.0,1.91809,0.00035,397.764,0.016,0.0953,0.0014,140.002,45.000,31470.64896,1.91987,398.216,28.063,45.060,45.000,0.00,0.11,-272.58,-272.64,-12,561,5,15.0,4.4,-25.9,15.2,4.5,-25.3,5.73,2.68,-15.8,21.7
2013-11-08 01:07:00,0.0,1.91766,0.00043,397.671,0.043,0.0939,0.0019,140.001,45.000,31470.70575,1.91955,398.136,28.104,45.060,45.000,0.00,0.11,-272.58,-272.63,-12,561,5,15.0,4.4,-25.8,15.2,4.6,-25.3,5.73,2.68,-15.7,21.7
2013-11-08 01:08:00,0.0,1.91789,0.00033,397.620,0.000,0.0959,0.0015,139.999,45.000,31469.24984,1.91956,398.078,28.116,45.060,44.999,0.00,0.11,-272.57,-272.63,-12,562,5,15.0,4.4,-25.8,15.1,4.6,-25.3,5.73,2.63,-15.7,21.6
2013-11-08 01:09:00,0.0,1.91821,0.00043,397.620,0.000,0.0964,0.0026,139.999,45.000,31469.61934,1.92002,398.079,28.095,45.060,45.000,0.00,0.11,-272.58,-272.64,-12,562,5,15.0,4.4,-25.7,15.1,4.6,-25.2,5.73,2.60,-15.7,21.7
2013-11-08 01:10:00,0.0,1.91796,0.00043,397.620,0.000,0.0967,0.0013,140.002,45.000,31472.55406,1.91999,398.085,28.085,45.060,45.000,0.00,0.11,-272.58,-272.64,-12,561,5,15.0,4.5,-25.6,15.2,4.6,-25.1,5.73,2.64,-15.7,21.7
2013-11-08 01:11:00,0.0,1.91784,0.00032,397.652,0.017,0.0954,0.0016,139.998,45.000,31471.29134,1.91946,398.103,28.081,45.060,45.000,0.00,0.11,-272.58,-272.64,-12,562,5,15.0,4.5,-25.6,15.2,4.6,-25.1,5.73,2.69,-15.7,21.7
2013-11-08 01:12:00,0.0,1.91784,0.00034,397.661,0.000,0.0962,0.0016,140.006,45.000,31473.43633,1.91974,398.124,28.089,45.060,45.000,0.00,0.11,-272.58,-272.63,-12,562,5,15.0,4.5,-25.6,15.2,4.6,-25.1,5.73,2.67,-15.7,21.7
2013-11-08 01:13:00,0.0,1.91800,0.00055,397.661,0.000,0.0962,0.0021,139.996,45.000,31471.63908,1.91969,398.120,28.079,45.060,45.000,0.00,0.11,-272.58,-272.64,-12,562,5,15.1,4.4,-25.6,15.2,4.6,-25.2,5.73,2.62,-15.7,21.7
2013-11-08 01:14:00,0.0,1.91792,0.00042,397.661,0.000,0.0963,0.0013,140.007,45.000,31475.51321,1.91982,398.120,28.094,45.060,45.000,0.00,0.11,-272.57,-272.64,-12,562,5,15.1,4.4,-25.7,15.2,4.6,-25.2,5.73,2.60,-15.7,21.7
2013-11-08 01:15:00,0.0,1.91803,0.00027,397.661,0.000,0.0964,0.0010,139.994,45.000,31471.54127,1.91996,398.123,28.118,45.060,45.000,0.00,0.11,-272.57,-272.63,-12,562,5,15.1,4.4,-25.7,15.2,4.6,-25.3,5.73,2.65,-15.7,21.7
2013-11-08 01:16:00,0.0,1.91798,0.00021,397.661,0.000,0.0955,0.0016,139.998,45.000,31474.18674,1.91973,398.117,28.125,45.060,45.000,0.00,0.11,-272.58,-272.64,-12,562,5,15.1,4.4,-25.7,15.2,4.5,-25.3,5.73,2.69,-15.7,21.7
2013-11-08 01:17:00,0.0,1.91772,0.00021,397.714,0.025,0.0949,0.0017,139.998,45.000,31475.66382,1.91957,398.164,28.125,45.060,45.000,0.00,0.11,-272.58,-272.64,-12,562,5,15.1,4.4,-25.7,15.2,4.5,-25.3,5.73,2.66,-15.7,21.7
2013-11-08 01:18:00,0.0,1.91789,0.00021,397.691,0.031,0.0952,0.0015,139.998,45.000,31476.56450,1.91962,398.153,28.125,45.060,45.000,0.00,0.11,-272.58,-272.64,-12,562,5,15.1,4.4,-25.8,15.2,4.5,-25.3,5.73,2.61,-15.7,21.7
2013-11-08 01:19:00,0.0,1.91785,0.00038,397.664,0.000,0.0949,0.0006,140.002,45.000,31477.88716,1.91963,398.118,28.125,45.060,45.000,0.00,0.11,-272.57,-272.64,-12,562,5,15.1,4.4,-25.7,15.2,4.5,-25.3,5.73,2.60,-15.7,21.7
2013-11-08 01:20:00,0.0,1.91754,0.00025,397.705,0.037,0.0957,0.0013,139.997,45.000,31477.72639,1.91951,398.156,28.125,45.060,45.000,0.00,0.11,-272.58,-272.64,-12,562,5,15.0,4.4,-25.8,15.2,4.5,-25.3,5.73,2.65,-15.7,21.7
2013-11-08 01:21:00,0.0,1.91726,0.00018,397.739,0.000,0.0951,0.0013,139.997,45.000,31475.81766,1.91902,398.192,28.125,45.060,45.000,0.00,0.11,-272.58,-272.64,-12,562,5,15.0,4.4,-25.8,15.2,4.5,-25.3,5.73,2.69,-15.7,21.7
2013-11-08 01:22:00,0.0,1.91742,0.00030,397.602,0.064,0.0952,0.0008,140.000,45.000,31476.65767,1.91920,398.073,28.125,45.060,45.000,0.00,0.11,-272.57,-272.63,-12,562,5,15.0,4.4,-25.7,15.2,4.6,-25.2,5.73,2.66,-15.7,21.7
2013-11-08 01:23:00,0.0,1.91743,0.00025,397.572,0.000,0.0973,0.0007,140.010,45.000,31478.43359,1.91921,398.036,28.125,45.060,45.000,0.00,0.11,-272.58,-272.64,-12,562,5,15.0,4.4,-25.6,15.2,4.6,-25.1,5.73,2.61,-15.7,21.7
2013-11-08 01:24:00,0.0,1.91749,0.00032,397.572,0.000,0.0981,0.0009,140.004,45.000,31480.26910,1.91944,398.042,28.131,45.060,45.000,0.00,0.11,-272.58,-272.64,-12,562,5,15.0,4.5,-25.6,15.2,4.6,-25.1,5.73,2.61,-15.7,21.7
2013-11-08 01:25:00,0.0,1.91725,0.00033,397.704,0.001,0.0970,0.0023,139.995,45.000,31478.53041,1.91903,398.158,28.146,45.060,45.000,0.00,0.11,-272.57,-272.64,-12,562,5,15.1,4.5,-25.5,15.2,4.6,-25.1,5.73,2.67,-15.7,21.7
2013-11-08 01:26:00,0.0,1.91745,0.00031,397.730,0.003,0.0955,0.0005,139.999,45.000,31479.96304,1.91926,398.187,28.173,45.060,45.000,0.00,0.11,-272.58,-272.64,-12,562,5,15.1,4.4,-25.6,15.2,4.6,-25.2,5.73,2.69,-15.7,21.7
2013-11-08 01:27:00,0.0,1.91748,0.00027,397.739,0.008,0.0946,0.0017,140.007,45.000,31482.30486,1.91936,398.189,28.178,45.060,45.000,0.00,0.11,-272.58,-272.64,-12,562,5,15.1,4.4,-25.7,15.2,4.5,-25.3,5.73,2.65,-15.7,21.7
2013-11-08 01:28:00,0.0,1.91730,0.00027,397.743,0.002,0.0955,0.0010,140.001,45.000,31479.80817,1.91912,398.202,28.188,45.060,45.000,0.00,0.11,-272.57,-272.63,-12,562,5,15.1,4.4,-25.7,15.2,4.5,-25.3,5.73,2.61,-15.7,21.7
2013-11-08 01:29:00,0.0,1.91688,0.00032,397.740,0.000,0.0957,0.0005,140.000,45.000,31482.11726,1.91872,398.198,28.188,45.060,45.000,0.00,0.11,-272.57,-272.63,-12,562,5,15.1,4.4,-25.7,15.2,4.5,-25.3,5.73,2.61,-15.7,21.7
2013-11-08 01:30:00,0.0,1.91720,0.00023,397.740,0.000,0.0956,0.0010,139.996,45.000,31477.61842,1.91898,398.199,28.188,45.060,45.000,0.00,0.11,-272.58,-272.64,-12,562,5,15.1,4.4,-25.7,15.2,4.5,-25.3,5.73,2.67,-15.7,21.8
2013-11-08 01:31:00,0.0,1.91727,0.00029,397.740,0.000,0.0931,0.0023,140.003,45.000,31479.91405,1.91897,398.188,28.188,45.060,45.000,0.00,0.11,-272.58,-272.63,-12,562,5,15.1,4.3,-25.8,15.2,4.5,-25.4,5.73,2.68,-15.7,21.8
2013-11-08 01:32:00,0.0,1.91721,0.00016,397.740,0.000,0.0930,0.0009,139.999,45.000,31479.95875,1.91894,398.185,28.188,45.060,45.000,0.00,0.11,-272.57,-272.63,-12,562,5,15.0,4.3,-25.9,15.2,4.5,-25.4,5.73,2.65,-15.7,21.7
2013-11-08 01:33:00,0.0,1.91768,0.00042,397.807,0.045,0.0930,0.0015,140.003,45.000,31481.54285,1.91930,398.243,28.189,45.060,45.000,0.00,0.11,-272.58,-272.64,-12,562,5,15.0,4.3,-25.9,15.2,4.5,-25.5,5.73,2.61,-15.7,21.7
2013-11-08 01:34:00,0.0,1.91886,0.00023,397.856,0.000,0.0914,0.0012,140.008,45.000,31480.78836,1.92045,398.295,28.197,45.060,45.000,0.00,0.11,-272.58,-272.64,-12,562,5,15.0,4.2,-26.1,15.2,4.4,-25.6,5.73,2.62,-15.7,21.7
2013-11-08 01:35:00,0.0,1.91908,0.00034,397.856,0.000,0.0908,0.0015,140.009,45.000,31479.64441,1.92072,398.291,28.222,45.060,45.000,0.00,0.11,-272.58,-272.64,-12,562,5,15.0,4.2,-26.3,15.2,4.3,-25.8,5.73,2.67,-15.7,21.7
2013-11-08 01:36:00,0.0,1.91874,0.00058,397.856,0.000,0.0883,0.0010,139.997,45.000,31475.30704,1.92042,398.280,28.221,45.060,45.000,0.00,0.11,-272.58,-272.64,-12,562,5,15.0,4.1,-26.5,15.2,4.3,-26.0,5.73,2.68,-15.7,21.7
2013-11-08 01:37:00,0.0,1.91954,0.00055,397.917,0.040,0.0880,0.0015,140.004,45.000,31476.94730,1.92116,398.330,28.218,45.060,45.000,0.00,0.11,-272.58,-272.64,-12,561,5,15.0,4.1,-26.6,15.2,4.2,-26.1,5.73,2.64,-15.7,21.7
2013-11-08 01:38:00,0.0,1.91943,0.00047,397.944,0.000,0.0863,0.0020,139.997,45.000,31473.36839,1.92105,398.357,28.239,45.060,45.000,0.00,0.11,-272.57,-272.64,-12,562,5,15.0,4.0,-26.7,15.2,4.2,-26.2,5.73,2.61,-15.7,21.7
2013-11-08 01:39:00,0.0,1.92103,0.00065,397.986,0.027,0.0874,0.0021,140.003,45.000,31475.88353,1.92230,398.403,28.240,45.060,45.000,0.00,0.11,-272.57,-272.63,-12,562,5,15.1,4.0,-26.7,15.2,4.2,-26.2,5.73,2.62,-15.7,21.8
2013-11-08 01:40:00,0.0,1.91987,0.00170,397.963,0.000,0.0847,0.0012,140.005,45.000,31477.01840,1.92220,398.371,28.250,45.060,45.000,0.00,0.11,-272.58,-272.64,-12,562,5,15.1,4.0,-26.7,15.2,4.1,-26.3,5.73,2.68,-15.7,21.7
2013-11-08 01:41:00,0.0,1.91888,0.00031,397.963,0.000,0.0858,0.0014,140.001,45.000,31478.11513,1.92039,398.374,28.250,45.060,45.000,0.00,0.11,-272.58,-272.64,-12,562,5,15.1,4.0,-26.8,15.2,4.1,-26.3,5.73,2.68,-15.7,21.8
2013-11-08 01:42:00,0.0,1.91879,0.00036,397.963,0.000,0.0865,0.0028,140.002,45.000,31480.23151,1.92045,398.379,28.250,45.060,45.000,0.00,0.11,-272.58,-272.63,-12,562,5,15.1,4.0,-26.7,15.2,4.1,-26.3,5.73,2.63,-15.7,21.8
2013-11-08 01:43:00,0.0,1.91933,0.00033,397.963,0.000,0.0859,0.0007,140.000,45.000,31477.41881,1.92098,398.372,28.250,45.060,45.000,0.00,0.11,-272.58,-272.64,-12,562,5,15.1,4.0,-26.7,15.2,4.2,-26.2,5.73,2.60,-15.7,21.8
2013-11-08 01:44:00,0.0,1.91872,0.00079,398.002,0.000,0.0862,0.0013,140.000,45.000,31478.56407,1.92031,398.412,28.250,45.060,45.000,0.00,0.11,-272.58,-272.64,-12,562,5,15.1,4.0,-26.7,15.2,4.2,-26.2,5.73,2.62,-15.7,21.8
2013-11-08 01:45:00,0.0,1.91793,0.00063,397.958,0.061,0.0872,0.0009,139.997,45.000,31476.57413,1.91995,398.389,28.250,45.060,45.000,0.00,0.11,-272.57,-272.64,-12,562,5,15.1,4.0,-26.7,15.2,4.1,-26.3,5.73,2.67,-15.7,21.7
2013-11-08 01:46:00,0.0,1.91796,0.00031,397.872,0.000,0.0853,0.0015,140.002,45.000,31476.61929,1.91942,398.282,28.250,45.060,45.000,0.00,0.11,-272.57,-272.64,-12,562,5,15.1,4.0,-26.8,15.2,4.1,-26.3,5.73,2.67,-15.7,21.8